Flag for U.S.A. Weather past 2 weeks in Butte, Montana, U.S.A.

Now
37 °F

Clear.


Feels Like: 33 °F
Forecast: 39 / 64 °F
Wind: 5 mph from Southwest

Location: Mooney Airport

Current Time: Sep 20, 2014 at 12:02:36 PM

Latest Report: Sep 20, 2014 at 6:53 AM


Visibility: 10 mi

Pressure: 30.24 "Hg

Humidity: 89%

Dew point: 34 °F

Location of ButteLocation

Historic Weather in Butte — Graph

°F

Butte temperature yesterday

Maximum temperature yesterday: 69 °F (at 4:53 PM)
Minimum temperature yesterday: 47 °F (at 11:53 PM)
Average temperature yesterday: 57 °F

Past Weeks' High & Low Weather Summary

 TemperatureHumidityPressure
High78 °F (Sep 7, 3:53 PM)92% (Sep 11, 5:53 AM)30.52 "Hg (Sep 11, 5:53 AM)
Low19 °F (Sep 12, 7:53 AM)12% (Sep 7, 3:53 PM)29.72 "Hg (Sep 18, 6:53 PM)
Average51 °F55%30.06 "Hg
* Reported Sep 5 6:53 AM — Sep 20 6:53 AM, Butte, Weather by CustomWeather, © 2014

Note: Actual official high and low records may vary slightly from our data, if they occured in-between our weather recording intervals... More about our weather records

Advertising

Butte weather history for previous 24 hours

 ConditionsComfort  
Time TempWeatherWind HumidityBarometerVisibility
6:53 AM
Sep 20
37 °FClear.5 mph89%30.24 "Hg10 mi
5:53 AM38 °FClear.5 mph90%30.22 "Hg10 mi
4:53 AM40 °FClear.No wind86%30.19 "Hg10 mi
3:53 AM41 °FClear.No wind86%30.18 "Hg10 mi
2:53 AM45 °FClear.5 mph76%30.16 "Hg10 mi
1:53 AM45 °FClear.6 mph80%30.14 "Hg10 mi
12:53 AM53 °FClear.7 mph61%30.10 "Hg10 mi
11:53 PM
Sep 19
47 °FClear.8 mph74%30.12 "Hg10 mi
10:53 PM51 °FClear.No wind63%30.10 "Hg10 mi
9:53 PM53 °FClear.5 mph59%30.09 "Hg10 mi
8:53 PM57 °FClear.7 mph51%30.07 "Hg10 mi
7:53 PM62 °FSunny.10 mph43%30.04 "Hg10 mi
6:53 PM65 °FPassing clouds.12 mph39%30.02 "Hg10 mi
5:53 PM68 °FOvercast.16 mph35%30.00 "Hg10 mi
4:53 PM69 °FOvercast.16 mph35%29.98 "Hg10 mi
3:53 PM67 °FOvercast.13 mph37%29.98 "Hg10 mi
2:53 PM66 °FOvercast.13 mph37%29.98 "Hg10 mi
1:53 PM65 °FOvercast.14 mph39%29.99 "Hg10 mi
12:53 PM65 °FPassing clouds.13 mph39%29.99 "Hg10 mi
Weather by CustomWeather, © 2014

See weather overviewHow to use our weather pages